Location: Brantley
(31.5822°N, 86.2569°W)
Time: 17:19:27
(UTC+00:00)

Injun/Solrad 3 - Pass Details

Date: 25 February 2026
Orbit: 871 x 985 km, 66.8° (Epoch: 11 March)

Event Time Altitude Azimuth Distance (km) Brightness Sun altitude
Rises 22:59:49 0° 353° (N) 3,595 10.9 7.5°
Reaches altitude 10° 23:03:28 10° 14° (NNE) 2,671 10.1 6.8°
Maximum altitude 23:07:11 16° 51° (NE) 2,277 9.5 6.0°
Drops below altitude 10° 23:10:55 10° 88° (E) 2,706 9.7 5.3°
Sets 23:14:37 0° 109° (ESE) 3,665 10.5 4.5°
